User: anonymous   Login
Location: Unspecified
(0.0000°N, 0.0000°E)
Time: 21:44:24
(UTC+00:00)
Language:

GONETS M 13 (M23) - Orbit

View from above orbital plane
View from above orbital plane
View from above satellite
View from above satellite

Ground track
Ground track

The orbit data is extracted from the following two-line orbital elements,

1 40554U 15020C   17117.77575426 +.00000010 +00000-0 +00000-0 0  9997
2 40554 082.4832 310.2906 0013555 050.1351 310.0915 12.42891733094183
Epoch (UTC): 27 April 2017 18:37:05
Eccentricity: 0.0013555
inclination: 82.4832°
perigee height: 1483 km
apogee height: 1505 km
right ascension of ascending node: 310.2906°
argument of perigee: 50.1351°
revolutions per day: 12.42891733
mean anomaly at epoch: 310.0915°
orbit number at epoch: 9418

The dashed part of the orbit path shows where the satellite is in the earth's shadow,  

DLR